Location: Beugnon
(47.6222°N, 3.7850°E)
Time: 02:43:12
(UTC+00:00)

STARLINK-1210 - Pass Details

Date: 09 April 2020
Orbit: 548 x 551 km, 53.0° (Epoch: 03 June)

Event Time Altitude Azimuth Distance (km) Brightness Sun altitude
Rises 20:02:58 0° 295° (WNW) 2,714 9.0 -15.8°
Reaches altitude 10° 20:05:21 10° 286° (WNW) 1,818 7.5 -16.1°
Maximum altitude 20:09:05 34° 221° (SW) 914 4.8 -16.7°
Enters shadow 20:10:58 22° 174° (S) 1,208 5.0 -16.9°
